Year,Month,Day,Hour,Minute,Value (Times are PST for windspeed in km/hr)
2022,05,17,00,00,12.40
2022,05,17,00,01,13.80
2022,05,17,00,02,14.20
2022,05,17,00,03,11.60
2022,05,17,00,04,11.30
2022,05,17,00,05,11.30
2022,05,17,00,06,13.60
2022,05,17,00,07,14.60
2022,05,17,00,08,12.20
2022,05,17,00,09,11.10
2022,05,17,00,10,10.80
2022,05,17,00,11,12.40
2022,05,17,00,12,10.30
2022,05,17,00,13,8.40
2022,05,17,00,14,8.60
2022,05,17,00,15,10.30
2022,05,17,00,16,8.50
2022,05,17,00,17,10.70
2022,05,17,00,18,9.50
2022,05,17,00,19,8.90
2022,05,17,00,20,8.50
2022,05,17,00,21,8.30
2022,05,17,00,22,9.90
2022,05,17,00,23,9.30
2022,05,17,00,24,8.00
2022,05,17,00,25,10.20
2022,05,17,00,26,9.00
2022,05,17,00,27,10.00
2022,05,17,00,28,11.10
2022,05,17,00,29,7.40
2022,05,17,00,30,8.90
2022,05,17,00,31,10.30
2022,05,17,00,32,10.30
2022,05,17,00,33,8.10
2022,05,17,00,34,7.10
2022,05,17,00,35,9.40
2022,05,17,00,36,9.50
2022,05,17,00,37,7.20
2022,05,17,00,38,7.70
2022,05,17,00,39,9.70
2022,05,17,00,40,7.20
2022,05,17,00,41,7.30
2022,05,17,00,42,10.00
2022,05,17,00,43,10.30
2022,05,17,00,44,8.70
2022,05,17,00,45,8.20
2022,05,17,00,46,9.70
2022,05,17,00,47,7.10
2022,05,17,00,48,8.60
2022,05,17,00,49,10.10
2022,05,17,00,50,8.30
2022,05,17,00,51,8.10
2022,05,17,00,52,6.70
2022,05,17,00,53,8.10
2022,05,17,00,54,7.90
2022,05,17,00,55,7.60
2022,05,17,00,56,6.80
2022,05,17,00,57,4.50
2022,05,17,00,58,5.10
2022,05,17,00,59,2.80
2022,05,17,01,00,4.40
2022,05,17,01,01,1.20
2022,05,17,01,02,1.50
2022,05,17,01,03,0.80
2022,05,17,01,04,0.40
2022,05,17,01,05,7.50
2022,05,17,01,06,2.90
2022,05,17,01,07,0.80
2022,05,17,01,08,2.70
2022,05,17,01,09,9.80
2022,05,17,01,10,10.20
2022,05,17,01,11,4.80
2022,05,17,01,12,4.00
2022,05,17,01,13,0.90
2022,05,17,01,14,0.00
2022,05,17,01,15,0.10
2022,05,17,01,16,0.10
2022,05,17,01,17,0.00
2022,05,17,01,18,0.00
2022,05,17,01,19,0.00
2022,05,17,01,20,0.00
2022,05,17,01,21,0.00
2022,05,17,01,22,0.00
2022,05,17,01,23,0.00
2022,05,17,01,24,0.00
2022,05,17,01,25,0.00
2022,05,17,01,26,0.60
2022,05,17,01,27,4.80
2022,05,17,01,28,1.50
2022,05,17,01,29,0.40
2022,05,17,01,30,0.40
2022,05,17,01,31,0.20
2022,05,17,01,32,1.80
2022,05,17,01,33,1.90
2022,05,17,01,34,2.10
2022,05,17,01,35,0.20
2022,05,17,01,36,1.80
2022,05,17,01,37,1.90
2022,05,17,01,38,1.70
2022,05,17,01,39,1.40
2022,05,17,01,40,1.20
2022,05,17,01,41,0.50
2022,05,17,01,42,1.60
2022,05,17,01,43,3.10
2022,05,17,01,44,3.80
2022,05,17,01,45,2.40
2022,05,17,01,46,3.30
2022,05,17,01,47,0.80
2022,05,17,01,48,0.10
2022,05,17,01,49,0.00
2022,05,17,01,50,0.00
2022,05,17,01,51,0.00
2022,05,17,01,52,0.00
2022,05,17,01,53,0.00
2022,05,17,01,54,0.00
2022,05,17,01,55,0.00
2022,05,17,01,56,0.00
2022,05,17,01,57,0.00
2022,05,17,01,58,0.00
2022,05,17,01,59,0.00
2022,05,17,02,00,0.00
2022,05,17,02,01,0.00
2022,05,17,02,02,0.00
2022,05,17,02,03,0.00
2022,05,17,02,04,0.00
2022,05,17,02,05,0.00
2022,05,17,02,06,0.00
2022,05,17,02,07,0.00
2022,05,17,02,08,0.00
2022,05,17,02,09,1.20
2022,05,17,02,10,0.00
2022,05,17,02,11,0.00
2022,05,17,02,12,0.00
2022,05,17,02,13,0.00
2022,05,17,02,14,0.00
2022,05,17,02,15,0.00
2022,05,17,02,16,1.00
2022,05,17,02,17,6.50
2022,05,17,02,18,3.40
2022,05,17,02,19,0.00
2022,05,17,02,20,0.00
2022,05,17,02,21,0.00
2022,05,17,02,22,0.00
2022,05,17,02,23,0.00
2022,05,17,02,24,0.00
2022,05,17,02,25,0.00
2022,05,17,02,26,0.00
2022,05,17,02,27,1.40
2022,05,17,02,28,3.00
2022,05,17,02,29,0.60
2022,05,17,02,30,0.00
2022,05,17,02,31,3.50
2022,05,17,02,32,0.80
2022,05,17,02,33,0.00
2022,05,17,02,34,0.00
2022,05,17,02,35,1.00
2022,05,17,02,36,3.00
2022,05,17,02,37,0.00
2022,05,17,02,38,0.00
2022,05,17,02,39,0.20
2022,05,17,02,40,0.00
2022,05,17,02,41,0.00
2022,05,17,02,42,0.00
2022,05,17,02,43,0.00
2022,05,17,02,44,0.00
2022,05,17,02,45,0.00
2022,05,17,02,46,0.00
2022,05,17,02,47,0.00
2022,05,17,02,48,0.00
2022,05,17,02,49,0.00
2022,05,17,02,50,0.00
2022,05,17,02,51,0.00
2022,05,17,02,52,0.00
2022,05,17,02,53,0.00
2022,05,17,02,54,0.00
2022,05,17,02,55,0.00
2022,05,17,02,56,0.00
2022,05,17,02,57,0.00
2022,05,17,02,58,0.00
2022,05,17,02,59,0.00
2022,05,17,03,00,0.00
2022,05,17,03,01,0.00
2022,05,17,03,02,0.00
2022,05,17,03,03,1.20
2022,05,17,03,04,1.00
2022,05,17,03,05,4.00
2022,05,17,03,06,2.80
2022,05,17,03,07,0.60
2022,05,17,03,08,0.70
2022,05,17,03,09,0.70
2022,05,17,03,10,3.70
2022,05,17,03,11,1.90
2022,05,17,03,12,0.00
2022,05,17,03,13,0.10
2022,05,17,03,14,4.60
2022,05,17,03,15,5.00
2022,05,17,03,16,3.40
2022,05,17,03,17,7.20
2022,05,17,03,18,6.60
2022,05,17,03,19,5.80
2022,05,17,03,20,6.10
2022,05,17,03,21,2.90
2022,05,17,03,22,6.40
2022,05,17,03,23,4.10
2022,05,17,03,24,4.00
2022,05,17,03,25,6.60
2022,05,17,03,26,7.90
2022,05,17,03,27,8.40
2022,05,17,03,28,8.40
2022,05,17,03,29,10.00
2022,05,17,03,30,11.60
2022,05,17,03,31,9.40
2022,05,17,03,32,7.20
2022,05,17,03,33,7.60
2022,05,17,03,34,8.50
2022,05,17,03,35,6.80
2022,05,17,03,36,9.10
2022,05,17,03,37,10.10
2022,05,17,03,38,10.00
2022,05,17,03,39,10.50
2022,05,17,03,40,6.10
2022,05,17,03,41,7.70
2022,05,17,03,42,5.80
2022,05,17,03,43,6.10
2022,05,17,03,44,7.80
2022,05,17,03,45,8.20
2022,05,17,03,46,7.50
2022,05,17,03,47,5.90
2022,05,17,03,48,6.30
2022,05,17,03,49,8.40
2022,05,17,03,50,7.20
2022,05,17,03,51,6.10
2022,05,17,03,52,6.80
2022,05,17,03,53,4.80
2022,05,17,03,54,5.90
2022,05,17,03,55,6.40
2022,05,17,03,56,5.40
2022,05,17,03,57,4.50
2022,05,17,03,58,6.30
2022,05,17,03,59,4.50
2022,05,17,04,00,3.70
2022,05,17,04,01,6.10
2022,05,17,04,02,6.40
2022,05,17,04,03,3.40
2022,05,17,04,04,2.90
2022,05,17,04,05,3.60
2022,05,17,04,06,5.50
2022,05,17,04,07,4.00
2022,05,17,04,08,1.80
2022,05,17,04,09,3.70
2022,05,17,04,10,4.60
2022,05,17,04,11,4.70
2022,05,17,04,12,4.00
2022,05,17,04,13,6.50
2022,05,17,04,14,4.50
2022,05,17,04,15,5.50
2022,05,17,04,16,4.40
2022,05,17,04,17,2.00
2022,05,17,04,18,4.80
2022,05,17,04,19,4.00
2022,05,17,04,20,5.20
2022,05,17,04,21,3.70
2022,05,17,04,22,5.60
2022,05,17,04,23,4.40
2022,05,17,04,24,3.70
2022,05,17,04,25,3.00
2022,05,17,04,26,3.20
2022,05,17,04,27,5.30
2022,05,17,04,28,7.60
2022,05,17,04,29,5.80
2022,05,17,04,30,7.40
2022,05,17,04,31,5.90
2022,05,17,04,32,6.60
2022,05,17,04,33,6.60
2022,05,17,04,34,5.90
2022,05,17,04,35,5.80
2022,05,17,04,36,7.10
2022,05,17,04,37,4.50
2022,05,17,04,38,5.70
2022,05,17,04,39,4.70
2022,05,17,04,40,5.50
2022,05,17,04,41,2.20
2022,05,17,04,42,1.80
2022,05,17,04,43,3.30
2022,05,17,04,44,3.30
2022,05,17,04,45,5.80
2022,05,17,04,46,1.80
2022,05,17,04,47,2.90
2022,05,17,04,48,2.20
2022,05,17,04,49,4.00
2022,05,17,04,50,1.30
2022,05,17,04,51,2.20
2022,05,17,04,52,2.50
2022,05,17,04,53,2.40
2022,05,17,04,54,0.80
2022,05,17,04,55,2.90
2022,05,17,04,56,2.90
2022,05,17,04,57,4.00
2022,05,17,04,58,1.40
2022,05,17,04,59,0.00
2022,05,17,05,00,0.70
2022,05,17,05,01,1.70
2022,05,17,05,02,4.80
2022,05,17,05,03,3.70
2022,05,17,05,04,3.00
2022,05,17,05,05,0.30
2022,05,17,05,06,0.70
2022,05,17,05,07,0.50
2022,05,17,05,08,1.20
2022,05,17,05,09,0.10
2022,05,17,05,10,0.30
2022,05,17,05,11,1.70
2022,05,17,05,12,0.20
2022,05,17,05,13,0.00
2022,05,17,05,14,0.00
2022,05,17,05,15,0.00
2022,05,17,05,16,0.00
2022,05,17,05,17,0.00
2022,05,17,05,18,0.00
2022,05,17,05,19,0.30
2022,05,17,05,20,0.60
2022,05,17,05,21,0.00
2022,05,17,05,22,0.00
2022,05,17,05,23,0.60
2022,05,17,05,24,0.00
2022,05,17,05,25,0.00
2022,05,17,05,26,0.00
2022,05,17,05,27,0.00
2022,05,17,05,28,0.00
2022,05,17,05,29,0.00
2022,05,17,05,30,0.00
2022,05,17,05,31,0.00
2022,05,17,05,32,0.00
2022,05,17,05,33,0.00
2022,05,17,05,34,0.00
2022,05,17,05,35,0.00
2022,05,17,05,36,0.00
2022,05,17,05,37,0.00
2022,05,17,05,38,0.00
2022,05,17,05,39,0.00
2022,05,17,05,40,0.00
2022,05,17,05,41,0.00
2022,05,17,05,42,0.00
2022,05,17,05,43,0.00
2022,05,17,05,44,0.00
2022,05,17,05,45,0.00
2022,05,17,05,46,0.00
2022,05,17,05,47,0.00
2022,05,17,05,48,0.00
2022,05,17,05,49,0.00
2022,05,17,05,50,0.00
2022,05,17,05,51,0.00
2022,05,17,05,52,0.00
2022,05,17,05,53,0.00
2022,05,17,05,54,0.00
2022,05,17,05,55,0.00
2022,05,17,05,56,0.00
2022,05,17,05,57,0.00
2022,05,17,05,58,0.00
2022,05,17,05,59,0.00
2022,05,17,06,00,0.00
2022,05,17,06,01,0.10
2022,05,17,06,02,0.00
2022,05,17,06,03,0.00
2022,05,17,06,04,0.00
2022,05,17,06,05,0.00
2022,05,17,06,06,0.00
2022,05,17,06,07,0.00
2022,05,17,06,08,0.00
2022,05,17,06,09,0.00
2022,05,17,06,10,0.00
2022,05,17,06,11,0.00
2022,05,17,06,12,0.00
2022,05,17,06,13,0.00
2022,05,17,06,14,0.00
2022,05,17,06,15,0.00
2022,05,17,06,16,0.00
2022,05,17,06,17,0.00
2022,05,17,06,18,0.00
2022,05,17,06,19,0.00
2022,05,17,06,20,0.00
2022,05,17,06,21,0.00
2022,05,17,06,22,0.00
2022,05,17,06,23,0.00
2022,05,17,06,24,0.00
2022,05,17,06,25,0.00
2022,05,17,06,26,0.00
2022,05,17,06,27,0.00
2022,05,17,06,28,0.00
2022,05,17,06,29,0.00
2022,05,17,06,30,0.00
2022,05,17,06,31,0.00
2022,05,17,06,32,0.00
2022,05,17,06,33,0.00
2022,05,17,06,34,0.00
2022,05,17,06,35,0.00
2022,05,17,06,36,0.00
2022,05,17,06,37,0.00
2022,05,17,06,38,0.00
2022,05,17,06,39,0.00
2022,05,17,06,40,0.00
2022,05,17,06,41,0.00
2022,05,17,06,42,0.00
2022,05,17,06,43,0.00
2022,05,17,06,44,0.00
2022,05,17,06,45,0.00
2022,05,17,06,46,0.00
2022,05,17,06,47,0.00
2022,05,17,06,48,0.00
2022,05,17,06,49,0.00
2022,05,17,06,50,0.00
2022,05,17,06,51,0.00
2022,05,17,06,52,0.00
2022,05,17,06,53,0.00
2022,05,17,06,54,0.00
2022,05,17,06,55,0.00
2022,05,17,06,56,0.00
2022,05,17,06,57,0.00
2022,05,17,06,58,0.00
2022,05,17,06,59,0.00
2022,05,17,07,00,0.00
2022,05,17,07,01,0.00
2022,05,17,07,02,0.00
2022,05,17,07,03,0.00
2022,05,17,07,04,0.00
2022,05,17,07,05,0.00
2022,05,17,07,06,0.00
2022,05,17,07,07,0.00
2022,05,17,07,08,0.00
2022,05,17,07,09,0.00
2022,05,17,07,10,0.00
2022,05,17,07,11,0.00
2022,05,17,07,12,0.00
2022,05,17,07,13,0.00
2022,05,17,07,14,0.00
2022,05,17,07,15,0.00
2022,05,17,07,16,0.00
2022,05,17,07,17,0.00
2022,05,17,07,18,0.00
2022,05,17,07,19,0.00
2022,05,17,07,20,2.40
2022,05,17,07,21,7.90
2022,05,17,07,22,7.10
2022,05,17,07,23,5.60
2022,05,17,07,24,6.10
2022,05,17,07,25,6.80
2022,05,17,07,26,3.50
2022,05,17,07,27,3.70
2022,05,17,07,28,3.30
2022,05,17,07,29,7.30
2022,05,17,07,30,9.10
2022,05,17,07,31,7.00
2022,05,17,07,32,7.60
2022,05,17,07,33,6.40
2022,05,17,07,34,8.90
2022,05,17,07,35,7.80
2022,05,17,07,36,6.90
2022,05,17,07,37,8.10
2022,05,17,07,38,8.70
2022,05,17,07,39,8.20
2022,05,17,07,40,9.70
2022,05,17,07,41,8.50
2022,05,17,07,42,9.20
2022,05,17,07,43,9.80
2022,05,17,07,44,9.50
2022,05,17,07,45,10.90
2022,05,17,07,46,9.20
2022,05,17,07,47,11.30
2022,05,17,07,48,9.50
2022,05,17,07,49,11.30
2022,05,17,07,50,9.40
2022,05,17,07,51,11.50
2022,05,17,07,52,10.70
2022,05,17,07,53,11.90
2022,05,17,07,54,10.00
2022,05,17,07,55,9.20
2022,05,17,07,56,8.70
2022,05,17,07,57,8.10
2022,05,17,07,58,9.90
2022,05,17,07,59,6.10
2022,05,17,08,00,11.10
2022,05,17,08,01,9.90
2022,05,17,08,02,7.60
2022,05,17,08,03,10.20
2022,05,17,08,04,10.20
2022,05,17,08,05,10.50
2022,05,17,08,06,11.00
2022,05,17,08,07,10.30
2022,05,17,08,08,13.30
2022,05,17,08,09,9.90
2022,05,17,08,10,10.90
2022,05,17,08,11,11.00
2022,05,17,08,12,11.90
2022,05,17,08,13,13.20
2022,05,17,08,14,10.00
2022,05,17,08,15,13.10
2022,05,17,08,16,12.40
2022,05,17,08,17,12.30
2022,05,17,08,18,13.00
2022,05,17,08,19,10.90
2022,05,17,08,20,11.50
2022,05,17,08,21,14.40
2022,05,17,08,22,11.60
2022,05,17,08,23,11.70
2022,05,17,08,24,11.00
2022,05,17,08,25,13.60
2022,05,17,08,26,11.20
2022,05,17,08,27,13.10
2022,05,17,08,28,13.10
2022,05,17,08,29,12.40
2022,05,17,08,30,12.30
2022,05,17,08,31,10.10
2022,05,17,08,32,12.00
2022,05,17,08,33,15.50
2022,05,17,08,34,14.20
2022,05,17,08,35,13.60
2022,05,17,08,36,13.90
2022,05,17,08,37,14.60
2022,05,17,08,38,16.00
2022,05,17,08,39,16.20
2022,05,17,08,40,12.90
2022,05,17,08,41,11.80
2022,05,17,08,42,14.50
2022,05,17,08,43,15.10
2022,05,17,08,44,11.10
2022,05,17,08,45,13.50
2022,05,17,08,46,14.80
2022,05,17,08,47,15.20
2022,05,17,08,48,13.10
2022,05,17,08,49,13.20
2022,05,17,08,50,14.70
2022,05,17,08,51,14.20
2022,05,17,08,52,15.60
2022,05,17,08,53,17.00
2022,05,17,08,54,12.50
2022,05,17,08,55,13.00
2022,05,17,08,56,13.90
2022,05,17,08,57,12.30
2022,05,17,08,58,13.70
2022,05,17,08,59,13.30
2022,05,17,09,00,12.30
2022,05,17,09,01,10.50
2022,05,17,09,02,11.90
2022,05,17,09,03,11.00
2022,05,17,09,04,12.50
2022,05,17,09,05,11.00
2022,05,17,09,06,9.80
2022,05,17,09,07,13.60
2022,05,17,09,08,12.90
2022,05,17,09,09,12.40
2022,05,17,09,10,10.80
2022,05,17,09,11,12.40
2022,05,17,09,12,11.50
2022,05,17,09,13,9.80
2022,05,17,09,14,9.70
2022,05,17,09,15,12.30
2022,05,17,09,16,11.20
2022,05,17,09,17,11.80
2022,05,17,09,18,11.40
2022,05,17,09,19,13.80
2022,05,17,09,20,12.10
2022,05,17,09,21,10.20
2022,05,17,09,22,10.90
2022,05,17,09,23,11.20
2022,05,17,09,24,10.20
2022,05,17,09,25,11.30
2022,05,17,09,26,12.80
2022,05,17,09,27,12.50
2022,05,17,09,28,9.40
2022,05,17,09,29,11.50
2022,05,17,09,30,13.40
2022,05,17,09,31,12.10
2022,05,17,09,32,11.30
2022,05,17,09,33,10.70
2022,05,17,09,34,11.10
2022,05,17,09,35,13.10
2022,05,17,09,36,12.90
2022,05,17,09,37,11.70
2022,05,17,09,38,9.20
2022,05,17,09,39,10.10
2022,05,17,09,40,11.60
2022,05,17,09,41,12.80
2022,05,17,09,42,10.10
2022,05,17,09,43,11.90
2022,05,17,09,44,11.90
2022,05,17,09,45,14.10
2022,05,17,09,46,15.70
2022,05,17,09,47,12.90
2022,05,17,09,48,12.10
2022,05,17,09,49,10.70
2022,05,17,09,50,13.10
2022,05,17,09,51,13.10
2022,05,17,09,52,12.90
2022,05,17,09,53,11.60
2022,05,17,09,54,11.10
2022,05,17,09,55,11.00
2022,05,17,09,56,12.30
2022,05,17,09,57,15.00
2022,05,17,09,58,14.50
2022,05,17,09,59,15.90
2022,05,17,10,00,15.00
2022,05,17,10,01,14.60
2022,05,17,10,02,12.60
2022,05,17,10,03,11.90
2022,05,17,10,04,9.80
2022,05,17,10,05,11.60
2022,05,17,10,06,9.20
2022,05,17,10,07,9.80
2022,05,17,10,08,11.80
2022,05,17,10,09,9.40
2022,05,17,10,10,10.30
2022,05,17,10,11,12.80
2022,05,17,10,12,11.60
2022,05,17,10,13,10.20
2022,05,17,10,14,12.10
2022,05,17,10,15,11.30
2022,05,17,10,16,10.50
2022,05,17,10,17,10.80
2022,05,17,10,18,14.70
2022,05,17,10,19,11.20
2022,05,17,10,20,10.00
2022,05,17,10,21,9.60
2022,05,17,10,22,11.00
2022,05,17,10,23,11.20
2022,05,17,10,24,8.50
2022,05,17,10,25,9.40
2022,05,17,10,26,9.20
2022,05,17,10,27,9.20
2022,05,17,10,28,12.40
2022,05,17,10,29,11.70
2022,05,17,10,30,10.00
2022,05,17,10,31,12.90
2022,05,17,10,32,13.50
2022,05,17,10,33,12.60
2022,05,17,10,34,14.20
2022,05,17,10,35,13.00
2022,05,17,10,36,11.10
2022,05,17,10,37,12.30
2022,05,17,10,38,14.10
2022,05,17,10,39,12.10
2022,05,17,10,40,12.70
2022,05,17,10,41,12.50
2022,05,17,10,42,14.70
2022,05,17,10,43,10.50
2022,05,17,10,44,13.10
2022,05,17,10,45,11.60
2022,05,17,10,46,12.80
2022,05,17,10,47,12.90
2022,05,17,10,48,13.10
2022,05,17,10,49,15.60
2022,05,17,10,50,12.30
2022,05,17,10,51,16.10
2022,05,17,10,52,13.40
2022,05,17,10,53,11.30
2022,05,17,10,54,9.00
2022,05,17,10,55,11.00
2022,05,17,10,56,11.60
2022,05,17,10,57,10.60
2022,05,17,10,58,12.30
2022,05,17,10,59,12.70
2022,05,17,11,00,15.00
2022,05,17,11,01,12.10
2022,05,17,11,02,14.00
2022,05,17,11,03,10.50
2022,05,17,11,04,11.60
2022,05,17,11,05,13.30
2022,05,17,11,06,14.50
2022,05,17,11,07,15.60
2022,05,17,11,08,15.20
2022,05,17,11,09,15.00
2022,05,17,11,10,14.20
2022,05,17,11,11,13.10
2022,05,17,11,12,11.70
2022,05,17,11,13,14.20
2022,05,17,11,14,14.90
2022,05,17,11,15,11.30
2022,05,17,11,16,11.00
2022,05,17,11,17,10.30
2022,05,17,11,18,11.60
2022,05,17,11,19,11.20
2022,05,17,11,20,9.40
2022,05,17,11,21,11.90
2022,05,17,11,22,18.10
2022,05,17,11,23,15.70
2022,05,17,11,24,13.50
2022,05,17,11,25,15.50
2022,05,17,11,26,16.90
2022,05,17,11,27,16.20
2022,05,17,11,28,10.70
2022,05,17,11,29,16.60
2022,05,17,11,30,14.50
2022,05,17,11,31,14.10
2022,05,17,11,32,13.00
2022,05,17,11,33,12.90
2022,05,17,11,34,12.70
2022,05,17,11,35,17.10
2022,05,17,11,36,13.80
2022,05,17,11,37,13.00
2022,05,17,11,38,12.00
2022,05,17,11,39,11.70
2022,05,17,11,40,10.20
2022,05,17,11,41,11.10
2022,05,17,11,42,10.00
2022,05,17,11,43,10.20
2022,05,17,11,44,11.50
2022,05,17,11,45,9.80
2022,05,17,11,46,11.30
2022,05,17,11,47,10.10
2022,05,17,11,48,13.60
2022,05,17,11,49,13.60
2022,05,17,11,50,11.60
2022,05,17,11,51,13.00
2022,05,17,11,52,14.30
2022,05,17,11,53,10.30
2022,05,17,11,54,12.10
2022,05,17,11,55,12.10
2022,05,17,11,56,13.30
2022,05,17,11,57,13.70
2022,05,17,11,58,12.80
2022,05,17,11,59,12.00
2022,05,17,12,00,11.90
2022,05,17,12,01,11.10
2022,05,17,12,02,12.10
2022,05,17,12,03,12.90
2022,05,17,12,04,12.30
2022,05,17,12,05,12.50
2022,05,17,12,06,12.70
2022,05,17,12,07,11.50
2022,05,17,12,08,12.10
2022,05,17,12,09,12.10
2022,05,17,12,10,13.30
2022,05,17,12,11,9.60
2022,05,17,12,12,11.80
2022,05,17,12,13,13.50
2022,05,17,12,14,11.10
2022,05,17,12,15,14.20
2022,05,17,12,16,10.80
2022,05,17,12,17,13.30
2022,05,17,12,18,14.00
2022,05,17,12,19,10.90
2022,05,17,12,20,12.40
2022,05,17,12,21,9.90
2022,05,17,12,22,12.90
2022,05,17,12,23,13.70
2022,05,17,12,24,10.40
2022,05,17,12,25,17.10
2022,05,17,12,26,14.10
2022,05,17,12,27,13.30
2022,05,17,12,28,11.00
2022,05,17,12,29,8.40
2022,05,17,12,30,13.70
2022,05,17,12,31,16.60
2022,05,17,12,32,13.10
2022,05,17,12,33,12.90
2022,05,17,12,34,13.10
2022,05,17,12,35,13.60
2022,05,17,12,36,12.40
2022,05,17,12,37,14.80
2022,05,17,12,38,15.70
2022,05,17,12,39,16.70
2022,05,17,12,40,15.20
2022,05,17,12,41,15.70
2022,05,17,12,42,13.70
2022,05,17,12,43,19.70
2022,05,17,12,44,14.30
2022,05,17,12,45,16.50
2022,05,17,12,46,17.20
2022,05,17,12,47,12.70
2022,05,17,12,48,14.40
2022,05,17,12,49,14.90
2022,05,17,12,50,14.60
2022,05,17,12,51,12.70
2022,05,17,12,52,13.30
2022,05,17,12,53,13.50
2022,05,17,12,54,12.80
2022,05,17,12,55,13.60
2022,05,17,12,56,12.90
2022,05,17,12,57,12.00
2022,05,17,12,58,16.60
2022,05,17,12,59,17.30
2022,05,17,13,00,12.10
2022,05,17,13,01,12.70
2022,05,17,13,02,16.60
2022,05,17,13,03,10.50
2022,05,17,13,04,12.80
2022,05,17,13,05,13.10
2022,05,17,13,06,12.40
2022,05,17,13,07,12.90
2022,05,17,13,08,14.00
2022,05,17,13,09,11.80
2022,05,17,13,10,12.90
2022,05,17,13,11,12.20
2022,05,17,13,12,14.80
2022,05,17,13,13,14.50
2022,05,17,13,14,13.30
2022,05,17,13,15,12.80
2022,05,17,13,16,11.00
2022,05,17,13,17,16.30
2022,05,17,13,18,16.80
2022,05,17,13,19,12.00
2022,05,17,13,20,12.50
2022,05,17,13,21,14.20
2022,05,17,13,22,14.50
2022,05,17,13,23,12.40
2022,05,17,13,24,7.70
2022,05,17,13,25,11.40
2022,05,17,13,26,10.20
2022,05,17,13,27,15.00
2022,05,17,13,28,12.60
2022,05,17,13,29,12.60
2022,05,17,13,30,13.70
2022,05,17,13,31,13.30
2022,05,17,13,32,16.00
2022,05,17,13,33,12.40
2022,05,17,13,34,11.10
2022,05,17,13,35,12.30
2022,05,17,13,36,12.30
2022,05,17,13,37,18.60
2022,05,17,13,38,15.20
2022,05,17,13,39,12.90
2022,05,17,13,40,18.90
2022,05,17,13,41,16.60
2022,05,17,13,42,15.30
2022,05,17,13,43,17.70
2022,05,17,13,44,15.70
2022,05,17,13,45,14.60
2022,05,17,13,46,13.30
2022,05,17,13,47,14.00
2022,05,17,13,48,16.00
2022,05,17,13,49,13.80
2022,05,17,13,50,11.60
2022,05,17,13,51,18.50
2022,05,17,13,52,14.40
2022,05,17,13,53,16.00
2022,05,17,13,54,13.80
2022,05,17,13,55,11.10
2022,05,17,13,56,15.10
2022,05,17,13,57,18.80
2022,05,17,13,58,12.10
2022,05,17,13,59,14.00
2022,05,17,14,00,12.10
2022,05,17,14,01,10.70
2022,05,17,14,02,13.90
2022,05,17,14,03,14.20
2022,05,17,14,04,15.60
2022,05,17,14,05,12.70
2022,05,17,14,06,12.00
2022,05,17,14,07,11.80
2022,05,17,14,08,11.10
2022,05,17,14,09,13.60
2022,05,17,14,10,11.10
2022,05,17,14,11,13.50
2022,05,17,14,12,12.80
2022,05,17,14,13,9.70
2022,05,17,14,14,8.20
2022,05,17,14,15,8.60
2022,05,17,14,16,15.40
2022,05,17,14,17,13.60
2022,05,17,14,18,11.00
2022,05,17,14,19,12.40
2022,05,17,14,20,11.00
2022,05,17,14,21,11.90
2022,05,17,14,22,13.10
2022,05,17,14,23,13.60
2022,05,17,14,24,14.30
2022,05,17,14,25,14.40
2022,05,17,14,26,12.50
2022,05,17,14,27,15.80
2022,05,17,14,28,10.30
2022,05,17,14,29,15.20
2022,05,17,14,30,15.40
2022,05,17,14,31,15.40
2022,05,17,14,32,14.90
2022,05,17,14,33,13.10
2022,05,17,14,34,12.80
2022,05,17,14,35,14.50
2022,05,17,14,36,16.30
2022,05,17,14,37,13.30
2022,05,17,14,38,14.50
2022,05,17,14,39,14.70
2022,05,17,14,40,17.40
2022,05,17,14,41,16.50
2022,05,17,14,42,17.10
2022,05,17,14,43,15.50
2022,05,17,14,44,14.60
2022,05,17,14,45,14.10
2022,05,17,14,46,16.80
2022,05,17,14,47,16.20
2022,05,17,14,48,15.70
2022,05,17,14,49,15.70
2022,05,17,14,50,15.50
2022,05,17,14,51,17.20
2022,05,17,14,52,14.20
2022,05,17,14,53,13.70
2022,05,17,14,54,12.90
2022,05,17,14,55,14.90
2022,05,17,14,56,13.30
2022,05,17,14,57,13.10
2022,05,17,14,58,14.40
2022,05,17,14,59,13.20
2022,05,17,15,00,16.10
2022,05,17,15,01,16.80
2022,05,17,15,02,14.00
2022,05,17,15,03,14.40
2022,05,17,15,04,14.70
2022,05,17,15,05,13.20
2022,05,17,15,06,12.80
2022,05,17,15,07,15.10
2022,05,17,15,08,11.00
2022,05,17,15,09,14.50
2022,05,17,15,10,14.00
2022,05,17,15,11,14.20
2022,05,17,15,12,13.40
2022,05,17,15,13,15.80
2022,05,17,15,14,16.60
2022,05,17,15,15,15.70
2022,05,17,15,16,13.90
2022,05,17,15,17,13.40
2022,05,17,15,18,13.70
2022,05,17,15,19,12.90
2022,05,17,15,20,15.50
2022,05,17,15,21,13.70
2022,05,17,15,22,13.10
2022,05,17,15,23,11.20
2022,05,17,15,24,13.40
2022,05,17,15,25,13.10
2022,05,17,15,26,12.30
2022,05,17,15,27,11.70
2022,05,17,15,28,11.50
2022,05,17,15,29,11.90
2022,05,17,15,30,12.20
2022,05,17,15,31,12.90
2022,05,17,15,32,10.80
2022,05,17,15,33,11.70
2022,05,17,15,34,10.70
2022,05,17,15,35,13.80
2022,05,17,15,36,13.60
2022,05,17,15,37,13.30
2022,05,17,15,38,10.40
2022,05,17,15,39,11.60
2022,05,17,15,40,14.40
2022,05,17,15,41,13.20
2022,05,17,15,42,12.30
2022,05,17,15,43,14.20
2022,05,17,15,44,13.10
2022,05,17,15,45,14.40
2022,05,17,15,46,13.30
2022,05,17,15,47,12.60
2022,05,17,15,48,12.80
2022,05,17,15,49,12.30
2022,05,17,15,50,11.70
2022,05,17,15,51,12.40
2022,05,17,15,52,10.30
2022,05,17,15,53,11.50
2022,05,17,15,54,13.60
2022,05,17,15,55,14.00
2022,05,17,15,56,11.60
2022,05,17,15,57,11.00
2022,05,17,15,58,13.60
2022,05,17,15,59,12.30
2022,05,17,16,00,12.10
2022,05,17,16,01,12.50
2022,05,17,16,02,11.60
2022,05,17,16,03,11.60
2022,05,17,16,04,13.40
2022,05,17,16,05,13.90
2022,05,17,16,06,11.00
2022,05,17,16,07,11.70
2022,05,17,16,08,13.20
2022,05,17,16,09,11.10
2022,05,17,16,10,10.60
2022,05,17,16,11,9.70
2022,05,17,16,12,9.00
2022,05,17,16,13,10.80
2022,05,17,16,14,14.50
2022,05,17,16,15,11.20
2022,05,17,16,16,10.80
2022,05,17,16,17,11.90
2022,05,17,16,18,13.50
2022,05,17,16,19,9.70
2022,05,17,16,20,10.70
2022,05,17,16,21,11.40
2022,05,17,16,22,11.10
2022,05,17,16,23,8.00
2022,05,17,16,24,9.30
2022,05,17,16,25,10.30
2022,05,17,16,26,8.70
2022,05,17,16,27,8.80
2022,05,17,16,28,9.50
2022,05,17,16,29,12.60
2022,05,17,16,30,11.70
2022,05,17,16,31,12.90
2022,05,17,16,32,9.40
2022,05,17,16,33,11.00
2022,05,17,16,34,9.50
2022,05,17,16,35,10.10
2022,05,17,16,36,10.20
2022,05,17,16,37,13.20
2022,05,17,16,38,14.30
2022,05,17,16,39,10.80
2022,05,17,16,40,9.70
2022,05,17,16,41,12.80
2022,05,17,16,42,13.10
2022,05,17,16,43,10.90
2022,05,17,16,44,11.70
2022,05,17,16,45,13.70
2022,05,17,16,46,11.60
2022,05,17,16,47,12.40
2022,05,17,16,48,10.50
2022,05,17,16,49,11.20
2022,05,17,16,50,6.10
2022,05,17,16,51,8.60
2022,05,17,16,52,9.90
2022,05,17,16,53,10.00
2022,05,17,16,54,12.60
2022,05,17,16,55,13.10
2022,05,17,16,56,11.80
2022,05,17,16,57,9.40
2022,05,17,16,58,11.10
2022,05,17,16,59,9.80
2022,05,17,17,00,11.50
2022,05,17,17,01,11.90
2022,05,17,17,02,9.50
2022,05,17,17,03,8.40
2022,05,17,17,04,10.60
2022,05,17,17,05,12.20
2022,05,17,17,06,14.20
2022,05,17,17,07,13.10
2022,05,17,17,08,9.70
2022,05,17,17,09,11.60
2022,05,17,17,10,10.30
2022,05,17,17,11,8.70
2022,05,17,17,12,7.80
2022,05,17,17,13,7.30
2022,05,17,17,14,7.00
2022,05,17,17,15,7.90
2022,05,17,17,16,7.40
2022,05,17,17,17,9.00
2022,05,17,17,18,8.30
2022,05,17,17,19,7.90
2022,05,17,17,20,6.80
2022,05,17,17,21,9.50
2022,05,17,17,22,9.70
2022,05,17,17,23,9.90
2022,05,17,17,24,10.30
2022,05,17,17,25,10.10
2022,05,17,17,26,8.40
2022,05,17,17,27,7.70
2022,05,17,17,28,8.00
2022,05,17,17,29,9.80
2022,05,17,17,30,8.10
2022,05,17,17,31,8.10
2022,05,17,17,32,10.50
2022,05,17,17,33,10.30
2022,05,17,17,34,8.20
2022,05,17,17,35,7.40
2022,05,17,17,36,5.60
2022,05,17,17,37,8.20
2022,05,17,17,38,7.60
2022,05,17,17,39,9.20
2022,05,17,17,40,7.90
2022,05,17,17,41,9.70